Regional Weather Roundup
Issued by NWS Charleston, SC

Current Version | Previous Version | Graphics & Text | Print | Product List | Glossary On
Versions: 1 2 3 4 5 6 7 8 9 10 11 12 13 14 15 16 17 18 19 20 21 22 23 24 25 26 27 28 29 30 31 32 33 34 35 36 37 38 39 40 41 42 43 44 45 46 47 48 49 50
000
ASUS42 KCHS 312027
RWRCHS

REGIONAL WEATHER ROUNDUP
NATIONAL WEATHER SERVICE CHARLESTON SC
400 PM EDT FRI JUL 31 2015

NOTE: "FAIR" INDICATES FEW OR NO CLOUDS BELOW 12,000 FEET WITH NO
SIGNIFICANT WEATHER AND/OR OBSTRUCTIONS TO VISIBILITY.

NOT ALL STATIONS ARE QUALITY CONTROLLED BY THE NATIONAL
WEATHER SERVICE. USE DATA WITH CAUTION...ESPECIALLY
DEWPOINT OBSERVATIONS.

SCZ027-030-031-034>040-042>050-312100-
...SOUTHEAST SOUTH CAROLINA...

CITY           SKY/WX    TMP DP  RH WIND       PRES   REMARKS
N CHARLESTON   PTSUNNY   90  75  61 SW6       29.89F HX 100
WATERFRONT PRK   N/A     85  78  79 S6        29.88F HX  97
MOUNT PLEASANT   N/A     88  79  74 S8        29.89F HX 102
JOHNS ISLAND   FAIR      88  79  74 S9G17     29.90F HX 102
PINOPOLIS      NOT AVBL
MONCKS CORNER  CLOUDY    91  75  59 E3        29.88F HX 102
SUMMERVILLE    CLOUDY    88  79  74 CALM      29.89S HX 102
BEAUFORT MCAS  CLOUDY    82  72  71 SW10      29.91S
BEAUFORT ARPT  FAIR      82  77  83 SW5       29.91S HX  91
HILTON HEAD IS PTSUNNY   82  77  83 S7        29.92F HX  91
WALTERBORO     TSTM      82  75  78 SW13G18   29.91R
ALLENDALE      MOCLDY    88  75  66 S8G14     29.89R HX  97

...SOUTHERN MIDLANDS AND PEE DEE...

CITY           SKY/WX    TMP DP  RH WIND       PRES   REMARKS
GEORGETOWN     NOT AVBL
KINGSTREE      NOT AVBL
ORANGEBURG     MOSUNNY   93  69  45 NE6       29.89F HX  98
BARNWELL       FAIR      93  73  52 E5        29.90S HX 102
AIKEN          MOCLDY    91  61  35 NE5       29.94S HX  91
MANNING        LGT RAIN  90  68  48 NW3       29.88F HX  93
COLUMBIA       MOSUNNY   95  64  35 SE5       29.88F HX  97
SUMTER         PTSUNNY   94  68  41 E8        29.87F HX  98
FLORENCE       MOSUNNY   93  69  45 SE7       29.88F HX  98
MYRTLE BEACH   MOSUNNY   91  75  59 SE13      29.91F HX 102
N MYRTLE BEACH MOSUNNY   88  77  69 S9        29.89F HX 100

$$

GAZ063-065-086>088-099>101-113>116-118-119-134>141-150-312100-
...SOUTHEAST GEORGIA...

CITY           SKY/WX    TMP DP  RH WIND       PRES   REMARKS
SAVANNAH ARPT  TSTM      75  73  94 SW7       29.92F
HUNTER AAF     CLOUDY    82  74  78 N5        29.90F
FORT STEWART   TSTM      77  75  94 NW8       29.92R FOG
STATESBORO     TSTM      73  32  21 W3        29.94F
SYLVANIA       CLOUDY    77  74  90 SW6       29.94F THUNDER
CLAXTON        NOT AVBL

...CSRA...CENTRAL AND FAR SOUTHEAST GEORGIA...

CITY           SKY/WX    TMP DP  RH WIND       PRES   REMARKS
THOMSON        SUNNY     95  71  45 NE7       29.94S HX 103
AUGUSTA-BUSH   SUNNY     95  68  41 E7        29.89F HX  99
AUGUSTA-DANIEL SUNNY     93  67  42 MISG      29.91F HX  96
SWAINSBORO     FAIR      81  79  94 CALM      29.92F THUNDER
VIDALIA        RAIN      81  77  89 E3        29.91F
EASTMAN        MOCLDY    87  73  64 NE14      29.94R THUNDER HX  94
HAZLEHURST     FAIR      90  77  66 CALM      29.88F HX 103
ALMA           MOSUNNY   91  75  59 VRB5      29.89F HX 101
WAYCROSS       SUNNY     95  78  58 S6        29.88F HX 112
JESUP          CLOUDY    95  77  55 SE6       29.89S HX 109
BAXLEY         PTSUNNY   91  77  62 S7        29.88F HX 105
BRUNSWICK      PTSUNNY   90  77  66 SE8       29.91S HX 102
SAINT SIMONS   PTSUNNY   87  77  72 SE14      29.91F HX  99

$$

SCZ027-028-034-036>038-045-046-048>050-GAZ119-141-312100-
...LAKE AND SUPPLEMENTAL COASTAL OBSERVATIONS...

STATION/POSITION TIME  TEMP    WIND        PRES    WAVE   SWELL
                       AIR SEA DIR/SP/G            HT/PER HT/PER/DIR
                 (UTC) (F)     (DEG/KT/KT) (MB)    (FT/S) (FT/S/D)
UPR LAKE MARION  NOT AVBL
WINYAH BAY       1945   85     110/  6     1012.0S
LAKE MURRAY      1900   89     110/  4/  8 1012.5F
ACE BASIN NERRS  1900   88     220/  1     1013.0F
FORT PULASKI     2000   83 87  210/  5/  7 1013.4F
SAPELO ISLAND    2000   88     130/  9     1013.0S

$$

ANZ835-935-AMZ111-154-330-350-352-354-370-450-454-472-312100-
...C-MAN AND BUOY OBSERVATIONS...

STATION/POSITION TIME  TEMP    WIND        PRES    WAVE   SWELL
                       AIR SEA DIR/SP/G            HT/PER HT/PER/DIR
                 (UTC) (F)     (DEG/KT/KT) (MB)    (FT/S) (FT/S/D)
BUOY 41004       1950   82 85  200/ 12/ 14 1012.6F   2/ 7   2/ 7
BUOY 41008       1950   82 83  170/ 12/ 14 1013.3F   2/ 5
FOLLY BEACH CMAN 2000   82     210/ 12/ 13 1012.6F
CAPERS NEARSHORE 1908   82     220/ 14/ 17 1013.2F
FRIPP NEARSHORE  1900   84     240/ 12/ 14 1012.8F


STATION/POSITION TIME  TEMP    WIND        PRES    WAVE   SWELL
                       AIR SEA DIR/SP/G            HT/PER HT/PER/DIR
                 (UTC) (F)     (DEG/KT/KT) (MB)    (FT/S) (FT/S/D)
5E ST. MARYS GA  1921      86                N/A     2/ 9
FRYING PAN BUOY  1950   84 85  240/ 10/ 12 1013.0F   3/ 6   2/160/ 6
BUOY 41025       1950   81 86   10/ 14/ 16 1011.6F   4/ 8   3/160/ 8
CAPE LOOKOUT NC  2000   85     230/ 10/ 14 1011.1F
BUOY 41002       1950   82 81  250/ 19/ 23 1014.9F   7/ 8
BUOY 41010       1920   83 84  180/ 12/ 14 1017.1F
ST AUGUSTINE FL  2000   83 83  140/ 18/ 20 1013.9F


$$


USA.gov is the U.S. government's official web portal to all federal, state and local government web resources and services.